Regional Weather Roundup
Issued by NWS

Home | Current Version | Previous Version | Text Only | Print | Product List | Glossary On
Versions: 1 2 3 4 5 6 7 8 9 10 11 12 13 14 15 16 17 18 19 20 21 22 23 24 25 26 27 28 29 30 31 32 33 34 35 36 37 38 39 40 41 42 43 44 45 46 47 48 49 50
000
ASUS43 KFSD 211010
RWRSD

WEATHER ROUNDUP FOR SOUTH DAKOTA
NATIONAL WEATHER SERVICE SIOUX FALLS SD
500 AM CDT MON AUG 21 2017

NOTE: "FAIR" INDICATES FEW OR NO CLOUDS BELOW 12,000 FEET WITH NO
SIGNIFICANT WEATHER AND/OR OBSTRUCTIONS TO VISIBILITY.


SDZ001>005-009-010-012>017-211100-
NORTHWEST AND NORTH CENTRAL SOUTH DAKOTA

CITY           SKY/WX    TMP DP  RH WIND       PRES   REMARKS
BUFFALO          N/A     58  51  78 SW6       29.94R
FAITH            N/A     59  59 100 SE12      29.98F
MOBRIDGE       LGT RAIN  61  56  83 SE25      29.87F
$$

SDZ012>016-024>037-041>051-057-063-072>074-211100-
SOUTHWEST AND SOUTH CENTRAL SOUTH DAKOTA

CITY           SKY/WX    TMP DP  RH WIND       PRES   REMARKS
RAPID CTY ARPT MOCLDY    59  52  77 NE9       29.98S
PIERRE         PTCLDY    58  54  86 NE15      29.93F
CUSTER         PTCLDY    60  58  92 VRB3      30.09F
ELLSWORTH AFB  PTCLDY    61  52  70 N7        29.99
PHILIP         CLEAR     62  56  80 N6        29.94S
PINE RIDGE     CLOUDY    70  69  97 S7        29.96S
SPEARFISH      FAIR      57  52  82 SW5       30.02S
WINNER         FAIR      63  61  93 E6        29.96F
$$

SDZ004>011-016>023-039-040-211100-
NORTHEAST SOUTH DAKOTA

CITY           SKY/WX    TMP DP  RH WIND       PRES   REMARKS
ABERDEEN       CLOUDY    57  55  93 NE3       30.02R
WATERTOWN      PTCLDY    60  56  86 E5        30.02R
BROOKINGS      MOCLDY    63  59  87 E7        30.01S
SISSETON         N/A     52  51  97 S3        30.02R
$$

SDZ017-020-022-023-036>040-048>070-211100-
SOUTHEAST SOUTH DAKOTA

CITY           SKY/WX    TMP DP  RH WIND       PRES   REMARKS
SIOUX FALLS    CLOUDY    68  65  90 E8        29.99R
HURON          MOCLDY    59  57  93 N3        30.00R
CHAMBERLAIN    PTCLDY    62  58  86 NE7       29.97F
MITCHELL       CLEAR     60  59  96 N3        29.99R
YANKTON        CLOUDY    71  66  84 SE14      29.96S
$$

ABBREVIATIONS USED IN REMARKS
   TC - TEMPERATURE IN CELSIUS
  WCI - WIND CHILL INDEX
   HX - HEAT INDEX
  VSB - VISIBILITY





USA.gov is the U.S. government's official web portal to all federal, state and local government web resources and services.